Temperature
20 20 19 19 19 19 18 18 18 18 18 17 17 17 17 17 17 17 17 16 16 16 16 16 16 16 16 16 16 16 16 16 16 16 15 15 15 15 15 15 15 14 14
20 20 19 19 19 19 19 18 18 18 18 17 17 17 17 17 17 17 16 16 16 16 16 16 16 16 16 16 16 16 16 16 15 15 15 15 15 15 15 15 14 14 14
20 20 20 19 19 19 19 19 18 18 18 17 17 17 17 17 16 16 16 16 16 16 16 16 16 16 16 16 16 16 16 16 15 15 15 15 15 15 14 14 14 14 14
20 20 20 20 19 19 19 19 18 18 18 17 17 17 17 17 17 16 16 16 16 16 16 16 16 16 16 16 16 16 16 16 15 15 15 15 15 15 14 14 14 14 14
20 20 20 20 20 19 19 19 18 18 18 18 17 17 17 17 16 16 16 16 16 16 16 16 16 16 16 16 16 16 16 15 15 15 15 15 15 15 15 14 14 14 14
20 20 20 20 20 19 19 19 19 18 18 18 17 17 17 17 17 16 16 16 16 16 16 16 16 16 16 16 15 15 15 15 15 15 15 15 15 15 15 14 14 14 14
20 20 20 20 19 19 19 19 19 18 18 18 18 17 17 17 17 17 16 16 16 16 16 16 16 16 16 15 15 15 15 15 15 15 15 15 15 15 14 14 14 13 13
20 20 20 20 20 19 19 19 19 18 18 18 18 17 17 17 17 17 17 16 16 16 16 16 16 16 15 15 15 15 15 15 15 15 14 14 14 14 14 14 14 13 13
20 20 20 20 20 19 19 19 19 18 18 18 18 17 17 17 17 17 17 16 16 16 16 16 16 16 15 15 15 15 15 15 15 14 14 14 14 14 14 14 14 13 13
20 20 20 20 20 19 19 19 19 18 18 18 18 17 17 17 17 17 17 16 16 16 16 16 16 15 15 15 15 15 15 15 14 14 14 14 14 14 14 13 13 13 13
20 20 20 20 19 19 19 19 18 18 18 18 18 17 17 17 17 17 16 16 16 16 16 16 15 15 15 15 15 15 14 14 14 14 14 14 14 13 13 13 13 13 13
20 20 20 19 19 19 19 19 18 18 18 18 17 17 17 17 17 16 16 16 16 16 16 15 15 15 15 15 15 14 14 14 14 14 14 13 13 13 13 13 13 13 12
19 19 19 19 19 19 19 19 18 18 18 18 17 17 17 17 17 16 16 16 16 16 15 15 15 15 15 15 14 14 14 14 14 14 13 13 13 13 13 13 13 12 12
19 19 19 19 19 19 19 18 18 18 18 18 17 17 17 17 16 16 16 16 16 15 15 15 15 15 15 14 14 14 14 14 13 13 13 13 13 13 13 12 12 12 12
19 19 19 19 19 18 18 18 18 18 18 17 17 17 17 16 16 16 16 16 15 15 15 15 15 14 14 14 14 14 14 13 13 13 13 13 13 13 12 12 12 12 12
18 18 18 18 18 18 18 18 18 18 17 17 17 17 16 16 16 16 16 15 15 15 15 15 15 14 14 14 14 14 13 13 13 13 13 13 12 12 12 12 12 12 11
18 18 18 18 18 18 18 18 18 17 17 17 17 16 16 16 16 15 15 15 15 15 15 15 14 14 14 14 13 13 13 13 13 13 12 12 12 12 12 12 11 11 11
18 18 18 18 18 18 18 18 17 17 17 17 16 16 16 16 15 15 15 15 15 14 14 14 14 14 13 13 13 13 13 12 12 12 12 12 12 12 11 11 11 11 10
18 18 18 18 18 17 17 17 17 17 17 16 16 16 16 15 15 15 15 14 14 14 14 14 14 13 13 13 12 12 12 12 12 12 12 11 11 11 11 11 10 10 10
18 18 18 17 17 17 17 17 17 17 16 16 16 16 16 15 15 15 14 14 14 14 14 13 13 13 13 12 12 12 12 12 12 11 11 11 11 11 10 10 10 10 10
17 17 17 17 17 17 17 17 16 16 16 16 16 16 15 15 15 14 14 14 13 13 13 13 13 13 12 12 12 11 11 11 11 11 11 10 10 10 10 10 10 9 9
17 17 17 17 16 16 16 16 16 16 16 16 15 15 15 15 14 14 14 13 13 13 13 13 12 12 12 12 11 11 11 11 11 10 10 10 10 9 9 9 9 9 8
16 16 16 16 16 16 16 16 16 16 16 15 15 15 15 14 14 14 13 13 13 13 12 12 12 12 12 11 11 11 10 10 10 10 10 9 9 9 9 9 8 8 8
16 16 16 16 15 15 16 16 15 15 15 15 15 15 14 14 14 13 13 13 13 12 12 12 12 11 11 11 11 10 10 10 10 9 9 9 9 8 8 8 8 8 7
15 15 15 15 15 15 15 15 15 15 15 15 15 14 14 14 13 13 13 12 12 12 12 12 11 11 11 11 10 10 10 10 9 9 9 9 8 8 8 8 7 7 7
15 15 14 14 14 14 14 14 14 14 14 14 14 14 14 13 13 13 12 12 12 12 11 11 11 11 11 10 10 10 9 9 9 9 9 8 8 7 7 7 7 7 6
Wind_Speed
8 8 9 9 8 8 8 7 6 5 5 4 3 3 1 1 1 2 4 5 6 6 6 4 3 3 3 3 3 3 3 2 2 4 4 4 4 3 2 2 2 2 3
6 7 8 8 9 9 9 8 7 7 6 4 4 3 2 1 1 1 3 4 5 5 5 4 3 3 3 3 3 3 2 1 2 3 3 3 4 4 3 2 2 2 3
11 10 9 8 9 9 10 9 8 7 6 6 4 3 3 3 2 1 1 1 4 5 4 4 4 3 3 3 2 3 3 2 1 2 3 3 2 2 3 3 2 2 2
9 9 10 9 10 10 9 9 8 7 6 7 6 6 4 3 3 2 1 0 2 3 4 4 4 3 3 3 2 3 2 3 1 1 1 2 4 3 1 3 3 2 2
10 10 11 11 10 9 9 9 8 7 6 7 7 7 4 3 2 1 1 0 0 2 3 4 4 3 3 3 3 3 3 2 2 1 1 2 2 2 3 0 3 3 2
9 9 9 8 7 7 7 8 8 7 6 7 7 7 6 5 4 3 2 1 0 0 1 4 4 3 3 3 3 3 3 3 3 2 2 2 2 2 2 2 1 1 2
9 9 9 8 8 8 8 7 8 7 7 7 7 7 7 7 7 5 5 3 2 1 2 2 3 2 3 3 3 3 2 2 3 2 1 1 1 2 3 3 1 0 2
7 9 10 10 9 9 9 8 8 7 8 8 7 6 6 5 5 5 5 5 4 3 3 3 3 3 4 4 3 2 2 2 2 2 2 1 1 1 3 3 3 1 2
7 8 9 10 9 9 9 9 8 7 7 7 6 5 5 5 5 5 4 4 3 3 3 3 3 3 3 3 3 2 2 2 2 1 2 1 0 1 2 2 4 4 2
6 7 8 9 9 9 7 7 7 8 7 7 6 5 5 5 4 4 4 4 4 3 4 3 3 2 2 3 3 2 2 3 2 1 2 1 1 1 1 2 2 3 4
8 7 7 7 7 6 6 6 7 6 6 5 5 4 4 4 3 3 4 4 4 4 4 4 3 3 3 3 3 3 3 3 2 1 2 1 1 1 1 1 2 2 3
7 7 7 6 6 6 6 7 7 7 6 6 5 5 4 4 3 3 3 3 4 4 4 4 3 3 3 3 4 3 3 3 2 2 2 1 2 2 1 1 1 1 2
7 6 6 6 6 6 7 7 6 7 6 5 6 5 4 4 4 3 3 3 4 3 3 3 3 3 3 3 3 4 3 3 3 3 3 2 2 1 1 1 1 1 1
7 7 6 6 6 6 6 6 6 6 6 6 6 5 5 5 5 4 3 3 4 3 3 3 3 3 3 3 3 3 3 2 2 2 2 3 3 3 2 1 1 1 2
5 6 7 7 6 5 5 6 5 6 6 6 6 5 5 4 4 3 3 3 3 3 3 3 3 2 3 3 4 4 3 3 1 0 1 2 2 3 3 2 2 3 2
6 6 6 6 7 7 7 6 6 6 6 6 6 5 5 4 4 4 4 4 3 3 3 3 3 2 2 4 5 5 3 3 2 1 1 1 0 0 1 2 3 4 4
6 7 6 6 6 7 7 8 7 6 6 6 5 5 6 5 5 5 4 4 3 3 3 3 3 3 2 4 5 6 4 3 2 2 1 0 1 0 0 0 0 1 2
5 6 6 6 5 5 5 6 6 6 7 6 6 6 6 5 5 5 5 4 3 3 3 3 3 2 2 4 5 5 4 2 1 2 2 1 1 0 1 1 0 1 1
5 5 6 6 6 5 5 6 6 6 7 7 7 7 7 6 6 5 5 4 4 3 3 3 3 3 2 3 4 4 3 2 2 1 1 1 2 1 1 2 1 1 2
2 3 3 4 5 5 5 7 7 7 7 8 7 7 7 7 7 6 5 3 4 3 3 2 2 3 3 3 4 4 3 2 1 1 1 1 1 1 2 3 3 2 2
1 2 4 4 4 5 6 6 6 8 8 7 6 6 6 7 6 5 4 4 4 3 2 2 0 1 2 3 4 4 3 3 2 1 1 1 1 1 1 2 3 3 2
2 2 3 3 2 4 6 6 7 7 6 6 7 6 6 5 5 5 4 4 5 4 3 2 0 1 1 1 2 4 4 3 3 3 2 2 1 1 2 1 1 1 1
1 1 3 3 2 4 6 7 6 5 6 7 7 6 6 5 5 6 6 4 4 4 3 2 2 1 1 1 2 3 3 3 2 2 3 2 1 1 1 1 1 1 1
1 1 2 2 2 2 4 5 5 5 7 7 6 6 6 5 4 4 5 5 4 4 3 3 3 2 1 1 1 1 1 2 1 1 0 1 0 0 0 1 1 0 2
1 2 3 3 3 2 3 3 4 6 6 6 6 6 5 5 4 4 3 4 5 6 6 5 4 4 3 4 4 3 2 2 2 1 1 1 1 0 1 1 0 0 0
1 1 1 2 2 2 2 2 3 5 6 5 5 5 5 4 4 4 2 1 2 4 5 6 5 4 4 4 4 4 3 3 3 2 1 1 2 2 2 1 1 0 1
Wind_Direction
205 190 180 167 160 157 155 155 150 152 136 122 119 111 105 74 52 71 96 100 109 115 110 107 100 100 104 109 104 93 71 45 55 70 42 22 25 35 43 67 95 116 131
199 193 182 169 167 166 165 164 163 161 159 153 147 146 142 142 132 71 83 104 114 122 121 121 117 114 108 94 93 99 92 42 56 102 89 33 2 360 18 25 73 87 100
193 190 181 178 173 172 173 173 174 169 168 153 123 100 75 53 45 41 42 78 113 122 125 126 127 124 122 125 123 123 121 115 24 85 131 133 207 308 340 2 22 41 67
189 183 179 178 178 180 174 170 171 171 167 152 148 149 154 171 198 188 182 69 109 121 134 134 132 133 129 130 139 132 130 129 115 15 58 139 152 143 338 340 355 16 42
189 181 181 180 178 175 170 171 168 169 165 162 162 158 164 177 179 157 151 170 75 116 137 142 136 136 138 142 135 124 122 128 140 139 101 77 73 100 134 265 331 354 347
186 180 178 169 169 168 165 166 166 173 170 167 166 165 170 168 162 171 175 196 223 3 134 140 136 135 139 148 145 135 131 133 129 124 122 138 136 154 140 168 232 306 318
177 175 172 171 169 170 172 170 168 174 176 173 176 176 175 174 180 184 186 183 179 198 199 143 139 138 144 146 136 130 126 135 132 137 140 142 166 160 147 143 166 216 317
175 178 179 177 175 176 176 176 175 178 179 179 187 183 181 182 190 189 186 189 190 200 187 161 150 144 141 137 125 122 135 126 137 142 141 126 150 143 148 155 147 108 360
178 180 180 178 177 178 182 181 176 177 183 184 183 187 189 185 189 187 181 184 187 186 165 157 157 149 139 138 132 127 136 119 121 137 124 117 114 114 128 138 147 147 158
181 179 180 181 181 183 184 174 172 176 182 179 180 186 189 185 184 170 171 175 179 171 156 159 156 147 140 135 131 129 128 116 110 116 109 92 89 113 101 120 127 134 154
182 181 182 182 178 173 172 171 174 171 173 175 173 165 171 176 164 166 179 180 172 165 163 164 155 155 157 146 134 146 139 134 124 105 118 116 111 103 86 99 109 120 133
179 177 173 167 165 168 171 171 174 172 174 170 159 161 159 151 151 161 172 165 157 162 160 154 149 160 164 155 149 157 150 151 155 158 134 152 122 103 98 102 107 131 145
174 168 164 167 172 174 173 171 175 177 172 162 158 158 156 154 166 172 165 156 154 154 149 148 153 162 162 157 165 159 152 155 163 167 164 184 146 146 153 135 125 132 123
173 169 170 178 181 179 176 174 176 174 168 163 161 164 170 174 177 170 156 151 148 146 145 147 158 160 149 144 149 147 147 145 157 180 180 182 175 188 191 176 183 155 128
165 174 177 182 182 180 179 176 175 172 166 161 165 177 176 168 160 157 154 146 143 146 140 128 122 132 140 148 149 152 149 148 152 202 229 206 185 189 183 175 179 160 155
180 181 179 180 182 182 181 177 178 176 163 162 173 171 158 153 156 160 151 140 141 140 128 136 137 133 140 134 138 143 149 148 154 181 299 306 313 197 184 184 170 163 169
185 182 185 187 190 188 180 181 183 172 164 166 169 165 161 161 166 160 147 152 159 145 139 147 145 149 166 142 137 138 143 151 168 184 190 14 20 31 182 314 254 197 196
191 192 191 190 191 183 176 175 165 164 167 168 171 170 165 167 163 153 159 167 160 155 160 163 164 160 174 154 147 146 142 145 180 199 196 193 250 190 151 149 90 305 296
192 199 195 187 181 177 170 158 163 168 167 174 179 179 172 168 163 164 171 167 156 157 165 166 165 166 199 174 164 149 153 163 219 232 204 198 226 244 150 140 167 300 313
173 183 173 161 167 177 160 154 167 171 183 187 184 177 170 169 172 176 173 158 154 163 158 162 175 178 198 194 179 156 157 171 221 288 291 249 239 245 183 164 168 211 264
140 148 146 157 181 168 154 161 172 189 195 182 170 168 169 170 169 164 156 148 148 143 143 148 193 195 196 192 184 169 169 181 193 231 276 278 281 259 206 186 190 220 231
97 123 135 151 170 158 157 171 189 198 179 164 162 169 172 171 162 153 155 151 148 145 150 144 65 322 273 192 194 191 191 181 188 219 235 248 274 265 258 237 250 235 100
125 134 138 148 166 166 166 181 199 177 160 161 168 170 167 166 162 162 161 152 153 160 172 169 192 256 280 247 211 199 201 201 208 222 228 243 263 266 266 257 244 150 132
170 145 137 152 188 191 178 184 185 168 160 169 172 167 163 163 160 160 164 163 168 173 182 190 205 232 256 246 228 207 200 195 200 209 267 291 288 243 296 348 331 152 168
188 168 166 175 196 190 175 170 162 157 155 164 169 168 168 165 160 160 174 183 193 192 193 200 197 196 223 234 211 190 198 200 194 148 81 63 60 50 16 6 342 49 107
178 175 180 175 183 167 158 151 156 157 155 162 172 172 165 163 162 157 133 77 189 202 203 203 199 213 219 220 206 201 192 181 157 122 152 199 208 212 212 211 246 274 240
Height
1536 1538 1540 1542 1544 1546 1547 1549 1550 1551 1552 1553 1554 1554 1555 1555 1556 1556 1556 1556 1556 1556 1556 1556 1556 1557 1557 1557 1557 1557 1557 1557 1558 1558 1558 1558 1558 1558 1558 1557 1557 1556 1555
1534 1536 1538 1541 1542 1544 1546 1547 1549 1550 1551 1552 1553 1554 1555 1555 1556 1556 1556 1556 1556 1556 1557 1557 1557 1557 1557 1557 1557 1557 1558 1558 1558 1558 1558 1559 1560 1559 1559 1558 1557 1557 1556
1531 1534 1536 1539 1541 1543 1544 1546 1548 1549 1550 1552 1553 1553 1554 1555 1555 1556 1556 1556 1556 1556 1557 1557 1557 1557 1557 1557 1557 1558 1558 1558 1558 1558 1559 1559 1559 1559 1559 1558 1558 1557 1556
1529 1532 1534 1537 1539 1541 1543 1545 1547 1548 1549 1550 1551 1552 1553 1554 1554 1555 1555 1556 1556 1556 1556 1557 1557 1557 1557 1557 1557 1558 1558 1558 1558 1558 1558 1559 1559 1559 1559 1559 1558 1558 1557
1527 1529 1532 1534 1537 1540 1542 1544 1545 1547 1548 1549 1550 1551 1552 1553 1554 1554 1555 1555 1555 1556 1556 1556 1556 1557 1557 1557 1557 1557 1558 1558 1558 1558 1558 1558 1558 1558 1558 1558 1558 1558 1557
1525 1528 1530 1533 1536 1538 1540 1542 1543 1545 1547 1548 1549 1550 1551 1552 1552 1553 1554 1554 1554 1555 1555 1555 1556 1556 1556 1556 1557 1557 1557 1558 1558 1558 1558 1558 1558 1557 1557 1557 1557 1557 1557
1523 1526 1528 1531 1533 1536 1538 1540 1542 1543 1545 1546 1548 1549 1549 1550 1551 1552 1553 1553 1554 1554 1555 1555 1555 1555 1556 1556 1556 1557 1557 1557 1557 1557 1557 1557 1557 1557 1557 1556 1556 1556 1556
1522 1524 1526 1528 1531 1534 1536 1538 1540 1542 1543 1545 1546 1547 1548 1549 1550 1551 1552 1552 1553 1553 1554 1554 1554 1555 1555 1556 1556 1556 1556 1556 1556 1556 1556 1556 1556 1556 1556 1555 1555 1554 1555
1520 1522 1524 1527 1529 1532 1534 1536 1538 1540 1541 1543 1545 1546 1547 1548 1548 1550 1550 1551 1552 1552 1553 1553 1554 1554 1554 1555 1555 1555 1555 1555 1555 1555 1555 1555 1555 1555 1554 1554 1554 1554 1553
1519 1521 1523 1525 1528 1530 1532 1534 1536 1538 1540 1541 1543 1544 1545 1546 1547 1548 1549 1549 1550 1551 1551 1552 1552 1553 1553 1553 1553 1554 1554 1554 1554 1554 1554 1554 1553 1553 1553 1553 1552 1552 1552
1518 1519 1521 1524 1526 1529 1531 1533 1534 1536 1538 1540 1541 1542 1543 1544 1545 1546 1547 1548 1549 1549 1550 1550 1551 1551 1552 1552 1552 1552 1552 1552 1552 1552 1552 1552 1552 1552 1552 1551 1551 1550 1550
1516 1518 1520 1523 1525 1527 1529 1530 1532 1534 1536 1538 1539 1541 1542 1543 1544 1545 1545 1546 1547 1548 1548 1549 1549 1550 1550 1550 1551 1551 1551 1551 1551 1551 1551 1551 1551 1550 1550 1550 1549 1549 1549
1515 1517 1519 1521 1523 1525 1527 1529 1530 1532 1534 1536 1538 1539 1540 1541 1542 1543 1544 1545 1545 1546 1547 1547 1548 1548 1548 1549 1549 1549 1549 1549 1549 1549 1549 1549 1549 1549 1548 1548 1548 1547 1547
1514 1516 1518 1519 1521 1523 1525 1527 1529 1531 1533 1534 1536 1537 1538 1539 1541 1542 1542 1543 1544 1544 1545 1545 1546 1546 1547 1547 1547 1547 1547 1548 1547 1547 1547 1547 1547 1547 1547 1546 1546 1546 1545
1513 1515 1516 1517 1519 1521 1523 1525 1527 1529 1530 1532 1534 1535 1537 1538 1539 1540 1541 1542 1542 1543 1543 1543 1544 1544 1545 1545 1545 1546 1546 1546 1546 1546 1545 1545 1545 1545 1545 1544 1544 1543 1543
1512 1513 1515 1516 1517 1519 1520 1522 1524 1526 1528 1530 1531 1533 1535 1536 1537 1538 1539 1540 1540 1541 1541 1541 1542 1542 1543 1543 1543 1544 1544 1544 1543 1543 1543 1543 1543 1543 1542 1542 1542 1541 1540
1510 1511 1513 1514 1515 1517 1518 1520 1522 1524 1526 1527 1529 1531 1532 1534 1535 1536 1537 1538 1538 1539 1539 1540 1540 1540 1541 1541 1541 1541 1542 1541 1541 1541 1541 1541 1540 1540 1540 1539 1539 1538 1538
1508 1509 1510 1512 1513 1515 1517 1518 1520 1522 1523 1525 1527 1528 1530 1531 1533 1534 1535 1536 1536 1537 1537 1538 1538 1538 1539 1539 1540 1539 1539 1539 1539 1539 1538 1538 1538 1537 1537 1536 1536 1535 1535
1507 1508 1509 1510 1511 1512 1514 1516 1518 1519 1521 1523 1524 1526 1528 1529 1530 1531 1533 1534 1534 1535 1535 1536 1536 1536 1537 1537 1537 1537 1537 1536 1536 1536 1536 1535 1535 1534 1534 1533 1532 1532 1531
1506 1506 1507 1508 1509 1510 1511 1513 1515 1517 1518 1520 1522 1523 1525 1526 1528 1529 1530 1532 1532 1533 1533 1534 1534 1534 1534 1535 1535 1534 1534 1533 1533 1533 1533 1532 1532 1531 1531 1530 1529 1528 1527
1504 1505 1505 1506 1507 1508 1509 1510 1512 1514 1516 1518 1519 1521 1523 1524 1525 1527 1528 1529 1530 1531 1531 1531 1532 1532 1532 1532 1532 1532 1531 1530 1530 1530 1529 1529 1529 1528 1527 1527 1526 1525 1524
1502 1503 1503 1504 1505 1506 1507 1508 1510 1511 1513 1515 1517 1518 1520 1522 1523 1524 1525 1527 1527 1528 1528 1528 1529 1529 1529 1529 1529 1529 1528 1528 1527 1526 1526 1526 1525 1525 1524 1523 1522 1522 1521
1501 1501 1502 1502 1504 1504 1505 1506 1507 1509 1510 1512 1514 1515 1517 1519 1520 1521 1522 1523 1524 1525 1525 1525 1525 1525 1526 1526 1526 1526 1525 1525 1524 1523 1523 1522 1522 1521 1520 1519 1519 1518 1517
1499 1500 1500 1501 1501 1502 1503 1504 1505 1506 1508 1509 1511 1512 1514 1516 1517 1518 1519 1520 1521 1521 1522 1522 1522 1522 1522 1522 1522 1522 1522 1521 1521 1520 1519 1519 1518 1517 1516 1516 1515 1514 1513
1498 1498 1499 1499 1499 1500 1501 1502 1503 1504 1505 1507 1508 1510 1511 1513 1514 1515 1516 1517 1518 1519 1519 1519 1519 1519 1519 1519 1519 1519 1518 1518 1517 1516 1516 1515 1514 1513 1512 1511 1510 1510 1509
1497 1497 1497 1497 1497 1498 1499 1500 1501 1502 1502 1503 1505 1506 1508 1509 1510 1512 1513 1514 1515 1516 1517 1517 1517 1516 1517 1516 1516 1516 1515 1514 1514 1513 1511 1510 1510 1509 1508 1507 1506 1506 1505